Showing default

CAPELLA-15 (ACADIA), 60544

Orbit data source: Space-Track

CAPELLA-15 (ACADIA), 60544 is a payload satellite owned by Capella Space (US) in SSO that was launched on Fri, 16 Aug 2024 UTC via an FALCON 9 launch vehicle from the Air Force Western Test Range (AFWTR). Payload-class satellites include a variety of spacecraft equipped with specific instruments for various scientific and technological missions. These include communications satellites like Starlink; space stations such as the ISS; scientific satellites like the Hubble; Earth observation satellites from companies like Planet Labs, Umbra, and HawkEye 360; GPS; miniature CubeSats for education and research; and military/defense satellites.

Loading next visibility...
Identifier
60544, 2024-149CE
Orbit
SSO
Country
Flag of USUS
Related business
Manufacturer
Capella Space
Mission
Operational Commercial Radar Imaging
Bus & Motor
ACADIA, Unknown motor
Mass
180 kg wet, ~150 kg dry
Launch date (UTC)
2024-08-16 (1 year ago)
Launch vehicle
FALCON 9
Launch site
Air Force Western Test Range (AFWTR)
Object type
Payload
Rocket body
Debris
Shape & HBR
Box + 2 Pan + 1 Dish + 1 Rod, 1.8 m
Radar Cross Section
0.446 m², Large (>1 m²)

Expand to show TLE details & history
Last TLE update: 13 hours ago

TLE from 13 hours ago
0 CAPELLA-15 (ACADIA)
1 60544U 24149CE  25289.20803574  .00005606  00000-0  55240-3 0  9990
2 60544  97.7034   2.8493 0005060 170.3253 189.8065 14.92420024 63463
Epoch: 2025-10-16T04:59Z
TLE epoch observation values (Epoch: 2025-10-16T04:59:34.287Z)
Latitude
-0.00001°
Longitude
-97.01462°
Altitude
596.912 km
Speed
7.559 km/s
True Right ascension
00h 11m 23s
True Declination
0° 00' 00"
Sunlit
Object was in full shadow at epoch
Visualization orbit readout
Latitude
Unknown
Longitude
Unknown
Altitude
Unknown
Speed
Unknown
Apparent Right ascension
Unknown
Apparent Declination
Unknown
Sunlit
N/A
Visualization observer readout
Local Sidereal Time
12:35:44
Azimuth
Unknown
Elevation
Unknown
Doppler factor
Unknown
Orbital elements
Apogee altitude
590.932 km
Perigee altitude
583.883 km
Semi-major axis
6,965.545 km
Eccentricity
0.00051
Inclination
97.7034°
RAAN
2.8493°
Arg. of periapsis
170.3253°
True anomaly
189.79663°
Mean anomaly
189.8065°
Eccentric anomaly
189.80156°
Mean motion
3.73345 °/min
Orbital period
96.43 mins
BSTAR
0.0005524
Loading maneuver chart data...
Computing Atmospheric mass density...
Loading historical data...
Loading historical data...
Loading historical data...
Loading historical data...
Loading historical data...
Loading historical data...
Loading historical data...

Documentation

Showing up to 5 results
|